• MPC Preparation (Info)

  • MPEC 2014-B68 : 2014 BO43

    The following Minor Planet Electronic Circular may be linked-to from your own Web pages, but must not otherwise be redistributed electronically.

    A form allowing access to any MPEC is at the bottom of this page.


    Read MPEC 2014-B67 Read MPEC 2014-B69


    M.P.E.C. 2014-B68                                Issued 2014 Jan. 29, 20:56 UT
    
         The Minor Planet Electronic Circulars contain information on unusual
             minor planets and routine data on comets.  They are published
       on behalf of Commission 20 of the International Astronomical Union by the
              Minor Planet Center, Smithsonian Astrophysical Observatory,
                              Cambridge, MA 02138, U.S.A.
    
                 Prepared using the Tamkin Foundation Computer Network
    
                                  MPC@CFA.HARVARD.EDU
                URL https://www.minorplanetcenter.net/    ISSN 1523-6714
    
                                       2014 BO43
    
    Observations:
         K14B43O* C2014 01 24.39502 09 50 21.907+22 13 48.41         21.6 wLEB068F51
         K14B43O  C2014 01 24.40821 09 50 21.528+22 15 07.01         21.4 wLEB068F51
         K14B43O  C2014 01 24.42145 09 50 21.119+22 16 26.36         21.3 wLEB068F51
         K14B43O  C2014 01 28.38259 09 48 39.11 +28 40 35.1          21.4 VqEB068G96
         K14B43O  C2014 01 28.38733 09 48 38.90 +28 41 02.0          21.4 VqEB068G96
         K14B43O  C2014 01 28.39200 09 48 38.69 +28 41 28.0          22.2 VqEB068G96
         K14B43O KC2014 01 29.33578 09 48 08.48 +30 09 28.3          21.1 RoEB068291
         K14B43O KC2014 01 29.33841 09 48 08.33 +30 09 42.9          21.1 RoEB068291
         K14B43O KC2014 01 29.34106 09 48 08.22 +30 09 57.4          21.3 RoEB068291
    
    Observer details:
    291 LPL/Spacewatch II.  Observer R. A. Mastaler.  1.8-m f/2.7 reflector + CCD.
    F51 Pan-STARRS 1, Haleakala.  Observers N. Primak, A. Schultz, T. Goggia,
        M. Willman.  Measurer PS1 Science Consortium.  1.8-m Ritchey-Chretien
        + CCD.
    G96 Mt. Lemmon Survey.  Observer A. R. Gibbs.  Measurers E. J. Christensen,
        A. R. Gibbs, A. D. Grauer, R. E. Hill, J. A. Johnson, R. A. Kowalski,
        S. M. Larson, F. C. Shelly.  1.5-m reflector + CCD.
    
    Orbital elements:
    2014 BO43                                                Earth MOID = 0.2543 AU
    Epoch 2013 Nov. 4.0 TT = JDT 2456600.5                  MPC
    M 350.26882              (2000.0)            P               Q
    n   0.55495737     Peri.  313.04120     +0.14296308     -0.90882743
    a   1.4665481      Node   124.51714     +0.98848129     +0.11124280
    e   0.1923976      Incl.   28.40136     +0.04966175     +0.40206684
    P   1.78           H   22.7           G   0.15           U   8
    Residuals in seconds of arc
    140124 F51  0.2-  0.2+    140128 G96  0.1-  0.0     140129 291  0.1+  0.1+
    140124 F51  0.0   0.2-    140128 G96  0.1-  0.2+    140129 291  0.3-  0.1+
    140124 F51  0.2-  0.1-    140128 G96  0.3-  0.2-    140129 291  0.2-  0.2-
    
    Ephemeris:
    2014 BO43                a,e,i = 1.47, 0.19, 28                  q = 1.1844
    Date    TT    R. A. (2000) Decl.     Delta      r     Elong.  Phase     V
    2013 12 30    09 41 32.7 -12 51 39   0.3601  1.2134   122.0    43.4    22.6
    ...
    2014 01 14    09 50 43.8 +05 20 08   0.2976  1.2388   144.9    27.2    21.8
    ...
    2014 01 22    09 50 57.4 +18 14 58   0.2879  1.2549   157.4    17.5    21.4
    ...
    2014 01 28    09 48 51.2 +28 04 24   0.2948  1.2680   161.6    14.2    21.4
    2014 01 29    09 48 19.5 +29 38 18   0.2972  1.2702   161.5    14.3    21.4
    2014 01 30    09 47 45.0 +31 10 17   0.2998  1.2725   161.1    14.5    21.4
    ...
    2014 02 05    09 43 29.2 +39 31 22   0.3225  1.2866   155.6    18.4    21.7
    ...
    2014 02 13    09 36 36.5 +48 00 35   0.3670  1.3063   145.5    25.4    22.3
    ...
    2014 02 28    09 26 26.8 +56 36 20   0.4785  1.3455   129.3    34.7    23.2
    
    A. U. Tomatic                (C) Copyright 2014 MPC           M.P.E.C. 2014-B68
    

    Read MPEC 2014-B67 Read MPEC 2014-B69


    MPEC number:

    Enter an MPEC number in one of the following forms:

    • 1997-B01 (the full form)
    • J97B01 (the packed version of the full form)
    • B01 (the abbreviated form)